KD8UGJ Weather Reports


time (UTC)temp
C
wind
direction
speed
KPH
gust
KPH
rain 1hr
cm
rain 24hr
cm
rain mn
cm
humidity
%
barometer
mb
20260504081516 8 360 6.4 16.1 0.00 0.00 0.00 79 1009.0
20260504044546 10 360 14.5 25.7 0.00 0.00 0.00 75 1011.3
20260504043041 10 149 12.9 25.7 0.00 0.00 0.00 75 1011.3
20260504041540 9 360 16.1 24.1 0.00 0.00 0.00 76 1011.4
20260504040051 9 169 11.3 22.5 0.00 0.00 0.00 76 1011.7
20260504034546 9 166 14.5 30.6 0.00 0.00 0.00 76 1011.8
20260504033036 9 360 19.3 27.4 0.00 0.00 0.00 76 1012.0
20260504031536 9 175 16.1 22.5 0.00 0.00 0.00 75 1012.0
20260504030034 9 168 11.3 24.1 0.00 0.00 0.00 76 1012.3
20260504024532 9 157 14.5 22.5 0.00 0.00 0.00 77 1012.4
20260504023031 8 182 11.3 22.5 0.00 0.00 0.00 78 1012.6
20260504021531 8 182 9.7 16.1 0.00 0.00 0.00 79 1012.6
20260504020031 9 160 12.9 17.7 0.00 0.00 0.00 77 1012.7
20260504014530 9 165 9.7 16.1 0.00 0.00 0.00 77 1012.6
20260504013040 10 182 9.7 14.5 0.00 0.00 0.00 76 1012.7
20260504011528 10 360 8.0 16.1 0.00 0.00 0.00 75 1012.7
20260504010027 10 360 4.8 17.7 0.00 0.00 0.00 75 1012.8
20260504004527 10 202 4.8 12.9 0.00 0.00 0.00 74 1012.9
20260504003026 10 360 3.2 16.1 0.00 0.00 0.00 72 1012.9
20260504001525 10 207 3.2 16.1 0.00 0.00 0.00 71 1013.0
20260504000025 11 360 6.4 19.3 0.00 0.00 0.00 71 1013.2
20260503234526 11 239 11.3 27.4 0.00 0.00 0.00 69 1013.3
20260503233023 11 242 11.3 32.2 0.00 0.00 0.00 68 1013.3
20260503231524 12 217 14.5 32.2 0.00 0.00 0.00 68 1013.3
20260503230022 12 241 20.9 38.6 0.00 0.00 0.00 66 1013.2
20260503224522 14 253 25.7 38.6 0.00 0.00 0.00 60 1013.0
20260503223021 15 360 14.5 25.7 0.00 0.00 0.00 49 1012.9
20260503221520 15 360 16.1 27.4 0.00 0.00 0.00 49 1013.0
20260503220020 15 360 11.3 32.2 0.00 0.00 0.00 49 1013.0
20260503214519 15 360 14.5 32.2 0.00 0.00 0.00 48 1013.0
20260503213018 15 246 14.5 30.6 0.00 0.00 0.00 49 1013.2
20260503211523 15 360 12.9 30.6 0.00 0.00 0.00 49 1013.2
20260503210017 15 360 16.1 32.2 0.00 0.00 0.00 47 1013.3
20260503204514 15 360 16.1 32.2 0.00 0.00 0.00 49 1013.4
20260503203014 15 360 19.3 37.0 0.00 0.00 0.00 49 1013.5
20260503201513 15 360 24.1 38.6 0.00 0.00 0.00 47 1013.7
20260503200011 16 223 12.9 32.2 0.00 0.00 0.00 48 1013.8
20260503194510 15 277 12.9 33.8 0.00 0.00 0.00 47 1014.0
20260503193008 16 222 12.9 37.0 0.00 0.00 0.00 48 1014.1
20260503191507 16 221 12.9 37.0 0.00 0.00 0.00 48 1014.4
20260503190020 16 360 12.9 35.4 0.00 0.00 0.00 45 1014.7
20260503184508 16 360 12.9 43.5 0.00 0.00 0.00 47 1014.8
20260503183005 16 245 14.5 29.0 0.00 0.00 0.00 48 1014.8
20260503181501 16 360 11.3 33.8 0.00 0.00 0.00 48 1015.1
20260503180002 16 360 14.5 29.0 0.00 0.00 0.00 48 1015.2
20260503174558 16 360 9.7 35.4 0.00 0.00 0.00 50 1015.3
20260503173112 15 275 9.7 35.4 0.00 0.00 0.00 53 1015.4
20260503171554 15 360 16.1 35.4 0.00 0.00 0.00 51 1015.7